Location: NJAA Observatory
(40.6819°N, 74.8979°W)
Time: 05:41:23
(UTC-04:00)

S-56A Canister/Altair - Visible Passes

Search period start: 25 August 2016 00:00
Search period end: 04 September 2016 00:00
Orbit: 640 x 2494 km, 38.9° (Epoch: 23 August)

Date Brightness Start Highest point End Pass type
(mag) Time Alt. Az. Time Alt. Az. Time Alt. Az.
25 Aug 10.2 01:48:55 44° SE 01:48:55 44° SE 01:59:21 10° E visible
25 Aug 9.6 03:46:19 37° WSW 03:53:21 74° SSE 04:04:23 10° E visible
25 Aug 9.4 05:45:57 10° W 05:59:25 81° S 06:08:27 10° E visible
26 Aug 10.4 01:17:48 37° ESE 01:17:48 37° ESE 01:26:31 10° E visible
26 Aug 9.7 03:15:13 48° SW 03:20:14 72° SSE 03:31:53 10° E visible
26 Aug 9.5 05:12:37 10° W 05:26:30 82° S 05:36:10 10° E visible
27 Aug 10.7 00:46:41 30° ESE 00:46:41 30° ESE 00:53:33 10° E visible
27 Aug 9.7 02:44:05 59° SSW 02:47:04 69° SSE 02:59:18 10° E visible
27 Aug 9.5 04:41:30 17° W 04:53:30 83° S 05:03:49 10° E visible
28 Aug 10.9 00:15:32 23° E 00:15:32 23° E 00:20:27 10° E visible
28 Aug 9.7 02:12:56 65° S 02:13:52 66° SSE 02:26:37 10° E visible
28 Aug 9.6 04:10:21 25° W 04:20:25 83° S 04:31:25 10° E visible
28 Aug 11.2 23:44:22 17° E 23:44:22 17° E 23:47:12 10° E visible
29 Aug 9.8 01:41:47 62° SE 01:41:47 62° SE 01:53:52 10° E visible
29 Aug 9.6 03:39:11 34° WSW 03:47:16 83° S 03:58:55 10° E visible
29 Aug 9.5 05:39:40 10° W 05:53:28 72° SSW 06:02:59 10° ESE visible
29 Aug 11.4 23:13:12 11° E 23:13:12 11° E 23:13:47 10° E visible
30 Aug 10.1 01:10:37 52° ESE 01:10:37 52° ESE 01:21:01 10° ENE visible
30 Aug 9.7 03:08:01 45° WSW 03:14:03 82° S 03:26:21 10° E visible
30 Aug 9.6 05:06:10 10° W 05:20:32 76° SSW 05:30:43 10° ESE visible
30 Aug11.622:42:02E22:42:02E22:15:07SSWvisible
31 Aug 10.3 00:39:26 42° ESE 00:39:26 42° ESE 00:48:04 10° ENE visible
31 Aug 9.7 02:36:50 58° WSW 02:40:47 81° S 02:53:42 10° E visible
31 Aug 9.6 04:34:15 14° W 04:47:30 78° SSW 04:58:21 10° ESE visible
31 Aug11.322:10:53ENE22:10:53ENE21:45:55Svisible
01 Sep 10.6 00:08:17 32° E 00:08:17 32° E 00:15:01 10° ENE visible
01 Sep 9.7 02:05:41 72° SW 02:07:28 79° SSE 02:20:57 10° E visible
01 Sep 9.6 04:03:07 22° W 04:14:23 80° S 04:25:55 10° ESE visible
01 Sep 11.0 21:16:12 10° SSE 21:16:53 11° SSE 21:16:53 11° SSE visible
01 Sep 10.9 23:37:10 24° E 23:37:10 24° E 23:41:51 10° ENE visible
02 Sep 9.7 01:34:34 77° SSE 01:34:34 77° SSE 01:48:08 10° E visible
02 Sep 9.7 03:31:59 30° W 03:41:11 82° S 03:53:22 10° ESE visible
02 Sep 9.7 05:33:22 10° WNW 05:47:06 56° SSW 05:57:03 10° SE visible
02 Sep 10.9 20:45:19 10° SSE 20:48:02 13° SE 20:48:02 13° SE visible
02 Sep 10.8 22:42:41 10° SSW 23:06:05 17° E 23:08:35 10° ENE visible
03 Sep 9.9 01:03:29 64° ESE 01:03:29 64° ESE 01:15:12 10° E visible
03 Sep 9.7 03:00:55 41° W 03:07:55 83° S 03:20:45 10° E visible
03 Sep 9.7 04:59:53 10° WNW 05:14:11 61° SSW 05:24:49 10° SE visible
03 Sep 10.9 20:15:44 10° SE 20:18:35 11° ESE 20:19:19 11° ESE visible
03 Sep 10.3 22:10:25 10° SSW 22:35:06 10° E 22:35:13 10° ENE visible
